This demonstration page uses our WeatherBlox Daily Observations layout. Learn more.

Left ArrowRight Arrow

Hourly Observations for September 23, 2020

Temp ( °F °C ) Dew Point ( °F °C ) Humidity (%) Winds ( mph kmh ) Pressure ( in mb ) Visibility ( mi km ) Precip ( " mm )
12:53 am 00:53 Clear 67 19.4 46 7.8 47 47 ESE 7 11 29.91 1013 10 16 0.00 0.00
1:53 am 01:53 Clear 66 18.9 48 8.9 52 52 ESE 8 13 29.91 1013 10 16 0.00 0.00
2:53 am 02:53 Clear 66 18.9 53 11.7 63 63 ESE 9 15 29.90 1013 10 16 0.00 0.00
3:53 am 03:53 Clear 65 18.3 56 13.3 73 73 ESE 9 15 29.90 1012 10 16 0.00 0.00
4:53 am 04:53 Clear 65 18.3 57 13.9 76 76 SE 9 15 29.88 1012 10 16 0.00 0.00
5:53 am 05:53 Clear 64 17.8 57 13.9 78 78 E 6 9 29.88 1012 10 16 0.00 0.00
6:53 am 06:53 Clear 62 16.7 58 14.4 86 86 ESE 6 9 29.89 1012 10 16 0.00 0.00
7:53 am 07:53 Sunny 59 15 56 13.3 90 90 N 7 11 29.92 1013 10 16 0.00 0.00
8:53 am 08:53 Sunny 64 17.8 59 15 84 84 E 7 11 29.93 1014 10 16 0.00 0.00
9:53 am 09:53 Sunny 69 20.6 60 15.6 73 73 SE 10 17 29.93 1014 10 16 0.00 0.00
10:53 am 10:53 Sunny 74 23.3 59 15 60 60 ESE 10 17 29.93 1014 10 16 0.00 0.00
11:53 am 11:53 Sunny 80 26.7 56 13.3 44 44 ESE 8 13 29.92 1013 10 16 0.00 0.00
12:53 pm 12:53 Sunny 84 28.9 52 11.1 33 33 SE 13 20 29.90 1012 10 16 0.00 0.00
1:53 pm 13:53 Sunny 86 30 49 9.4 28 28 SSE 8 13 29.88 1012 10 16 0.00 0.00
2:53 pm 14:53 Sunny 89 31.7 50 10 26 26 ESE 10 17 29.84 1011 10 16 0.00 0.00
3:53 pm 15:53 Sunny 89 31.7 51 10.6 27 27 VRB 3 6 29.83 1010 10 16 0.00 0.00
4:53 pm 16:53 Sunny 90 32.2 50 10 25 25 VRB 7 11 29.80 1009 10 16 0.00 0.00
5:53 pm 17:53 Sunny 91 32.8 49 9.4 24 24 SSE 7 11 29.80 1009 10 16 0.00 0.00
6:53 pm 18:53 Sunny 89 31.7 48 8.9 24 24 SSE 10 17 29.81 1009 10 16 0.00 0.00
7:53 pm 19:53 Clear 84 28.9 48 8.9 29 29 SSE 5 7 29.83 1010 10 16 0.00 0.00
8:53 pm 20:53 Clear 80 26.7 48 8.9 33 33 ESE 8 13 29.84 1011 10 16 0.00 0.00
9:53 pm 21:53 Clear 78 25.6 47 8.3 33 33 ESE 10 17 29.85 1011 10 16 0.00 0.00
10:53 pm 22:53 Clear 77 25 47 8.3 35 35 ESE 13 20 29.85 1011 10 16 0.00 0.00
11:53 pm 23:53 Clear 75 23.9 48 8.9 39 39 ESE 14 22 29.86 1011 10 16 0.00 0.00

Powered by AerisWeather